(236942) = 2007 TD322

Discovered at Lulin on 2007-10-10 by LUSS.

Orbit

Orbit type: Main Belt

Note: WebGL enabled browser required.

epoch2023-09-13.0
epoch JD2460200.5
perihelion date2023-07-15.65626
perihelion JD2460141.15626
argument of perihelion (°)251.18358
ascending node (°)58.85432
inclination (°)6.58655
eccentricity0.1021376
perihelion distance (AU)2.8291904
Tisserand w.r.t. Jupiter3.2
ΔV w.r.t. Earth (km/sec)10.7
semimajor axis (AU)3.1510289
mean anomaly (°)10.45683
mean daily motion (°/day)0.17620790
aphelion distance (AU)3.473
period (years)5.59
P-vector [x]0.63794724
P-vector [y]-0.65628889
P-vector [z]-0.40287492
Q-vector [x]0.76379708
Q-vector [y]0.60593739
Q-vector [z]0.22238233
absolute magnitude15.67
phase slope0.15
uncertainty0
referenceMPO 778675
observations used381
oppositions16
arc length (days)8085
first opposition used2001
last opposition used2023
residual rms (arc-secs)0.71
perturbers coarse indicatorM-v
perturbers precise indicator003Ek
first observation date used2001-08-25.0
last observation date used2023-10-14.0
computer nameMPCLINUX
JD of orbit computation2456639.581158
perihelion JD uncertainty (days)2.0679E-04
argument of perihelion uncertainty (°)6.0809E-05
ascending node uncertainty (°)4.8969E-05
inclination uncertainty (°)7.0776E-06
eccentricity uncertainty 4.7771E-08
perihelion distance uncertainty (AU)1.4696E-07
Minimum Orbit Intersection Distances (in AU)
for orbit epoch: 2460200.5, reference: E2023-TP1
Mercury2.3914
Venus2.10281
Earth1.82313
Mars1.42977
Jupiter1.76175
Saturn5.65452
Uranus15.0412
Neptune26.6514

Observations

386 total observations over interval: 2001 08 25.30473 – 2023 10 14.262773
These data are available for download (format description).

Date (UT) J2000 RA J2000 Dec Magn Location Ref
2001 08 25.30473 00 19 48.63 -07 38 23.7 20 R 644 – Palomar Mountain/NEAT MPS 239532
2001 08 25.32556 00 19 47.99 -07 38 28.8   644 – Palomar Mountain/NEAT MPS 239532
2001 08 25.35047 00 19 47.23 -07 38 35.3   644 – Palomar Mountain/NEAT MPS 239532
2001 09 12.33775 00 08 25.07 -08 56 53.8 19.2   704 – Lincoln Laboratory ETS, New Mexico MPS 240823
2001 09 12.35190 00 08 24.41 -08 56 56.7 19.6   704 – Lincoln Laboratory ETS, New Mexico MPS 240823
2001 09 12.36602 00 08 23.80 -08 57 00.5 19.3   704 – Lincoln Laboratory ETS, New Mexico MPS 240823
2001 09 12.38014 00 08 23.12 -08 57 04.2 19.4   704 – Lincoln Laboratory ETS, New Mexico MPS 240823
2001 09 12.39426 00 08 22.44 -08 57 07.7 19.7   704 – Lincoln Laboratory ETS, New Mexico MPS 240823
2001 09 18.38171 00 03 48.63 -09 21 50.1 18.2 R 699 – Lowell Observatory-LONEOS MPS 239532
2001 09 18.40059 00 03 47.92 -09 21 53.3   699 – Lowell Observatory-LONEOS MPS 239532
2001 09 18.41950 00 03 46.86 -09 21 57.7   699 – Lowell Observatory-LONEOS MPS 239532
2001 09 18.43848 00 03 46.12 -09 22 00.9   699 – Lowell Observatory-LONEOS MPS 239532
2001 10 16.16580 23 44 15.50 -10 26 45.1 20.3   644 – Palomar Mountain/NEAT MPS 239532
2001 10 16.18678 23 44 14.76 -10 26 45.7 20.4   644 – Palomar Mountain/NEAT MPS 239532
2001 10 16.20773 23 44 14.10 -10 26 45.9 21.1   644 – Palomar Mountain/NEAT MPS 239532
2004 03 17.294840 09 04 48.208 +25 28 19.90 21.32 V 645 – Apache Point-Sloan Digital Sky Survey MPS 239532
2004 03 17.298312 09 04 48.120 +25 28 19.73 21.84   645 – Apache Point-Sloan Digital Sky Survey MPS 239532
2005 05 03.21078 13 25 25.84 -03 37 34.3 20.3 V 691 – Steward Observatory, Kitt Peak-Spacewatch MPS 239532
2005 05 03.22642 13 25 25.16 -03 37 32.3 20.7 V 691 – Steward Observatory, Kitt Peak-Spacewatch MPS 239532
2005 05 03.24199 13 25 24.49 -03 37 30.9 20.7 V 691 – Steward Observatory, Kitt Peak-Spacewatch MPS 239532
2005 05 14.14970 13 18 44.03 -03 23 34.9 20.6 V 691 – Steward Observatory, Kitt Peak-Spacewatch MPS 239532
2005 05 14.16524 13 18 43.51 -03 23 34.9 20.9 V 691 – Steward Observatory, Kitt Peak-Spacewatch MPS 239532
2005 05 14.18091 13 18 43.02 -03 23 34.0 20.6 V 691 – Steward Observatory, Kitt Peak-Spacewatch MPS 239532
2007 10 10.81836 02 15 56.44 +08 26 51.8 20.4 C D35 – Lulin Observatory MPS 223795
2007 10 10.83623 02 15 55.58 +08 26 48.8 20.1 C D35 – Lulin Observatory MPS 223795
2007 10 10.85410 02 15 54.71 +08 26 46.4 20.2 C D35 – Lulin Observatory MPS 223795
2007 10 15.20771 02 12 37.61 +08 14 57.0 19.6 V 691 – Steward Observatory, Kitt Peak-Spacewatch MPS 223795
2007 10 15.22298 02 12 36.85 +08 14 54.9 19.8 V 691 – Steward Observatory, Kitt Peak-Spacewatch MPS 223795
2007 10 15.24121 02 12 36.00 +08 14 51.7 19.8 V 691 – Steward Observatory, Kitt Peak-Spacewatch MPS 223795
2007 10 19.18150 02 09 28.97 +08 04 03.9 19.8 V 691 – Steward Observatory, Kitt Peak-Spacewatch MPS 239532
2007 10 19.19917 02 09 28.08 +08 04 01.1 19.8 V 691 – Steward Observatory, Kitt Peak-Spacewatch MPS 239532
2007 10 19.21684 02 09 27.24 +08 03 58.3 19.8 V 691 – Steward Observatory, Kitt Peak-Spacewatch MPS 239532
2007 10 30.26648 02 00 27.82 +07 35 09.5 20.6 V 703 – Catalina Sky Survey MPS 239532
2007 10 30.27298 02 00 27.46 +07 35 08.0 19.9 V 703 – Catalina Sky Survey MPS 239532
2007 10 30.27947 02 00 27.18 +07 35 06.8 20.3 V 703 – Catalina Sky Survey MPS 239532
2007 10 30.28595 02 00 26.82 +07 35 05.9 19.9 V 703 – Catalina Sky Survey MPS 239532
2007 11 05.22662 01 55 45.22 +07 21 45.7 20.0   704 – Lincoln Laboratory ETS, New Mexico MPS 240823
2007 11 05.23866 01 55 44.72 +07 21 45.0 19.8   704 – Lincoln Laboratory ETS, New Mexico MPS 240823
2007 11 05.25069 01 55 44.07 +07 21 43.9 20.3   704 – Lincoln Laboratory ETS, New Mexico MPS 240823
2007 11 13.20303 01 49 58.44 +07 07 55.5 20.5 V G96 – Mt. Lemmon Survey MPS 239532
2007 11 13.21015 01 49 58.11 +07 07 55.0 20.3 V G96 – Mt. Lemmon Survey MPS 239532
2007 11 13.21735 01 49 57.79 +07 07 54.3 20.2 V G96 – Mt. Lemmon Survey MPS 239532
2007 11 13.22443 01 49 57.50 +07 07 53.7 19.6 V G96 – Mt. Lemmon Survey MPS 239532
2008 12 02.43835 07 13 36.18 +27 42 44.9 20.8 V 691 – Steward Observatory, Kitt Peak-Spacewatch MPS 267585
2008 12 02.45600 07 13 35.61 +27 42 48.1 20.6 V 691 – Steward Observatory, Kitt Peak-Spacewatch MPS 267585
2008 12 02.47365 07 13 34.99 +27 42 51.2 21.0 V 691 – Steward Observatory, Kitt Peak-Spacewatch MPS 267585
2010 02 13.440977 11 25 25.074 +13 25 14.17 21.20 g F51 – Pan-STARRS 1, Haleakala MPS 319384
2010 02 13.449945 11 25 24.759 +13 25 17.05 21.54 g F51 – Pan-STARRS 1, Haleakala MPS 319384
2010 03 13.26112 11 05 20.29 +15 32 47.7 21.3 V 703 – Catalina Sky Survey MPS 317990
2010 03 13.26686 11 05 20.22 +15 32 50.1 20.6 V 703 – Catalina Sky Survey MPS 317990
2010 03 13.27265 11 05 19.93 +15 32 51.7 20.3 V 703 – Catalina Sky Survey MPS 317990
2010 03 13.27834 11 05 19.57 +15 32 53.1 20.9 V 703 – Catalina Sky Survey MPS 317990
2010 05 16.19363 10 45 50.36 +15 05 11.8 21.1 V G96 – Mt. Lemmon Survey MPS 328545
2010 05 16.19956 10 45 50.40 +15 05 10.4 22.4 V G96 – Mt. Lemmon Survey MPS 328545
2010 05 16.20552 10 45 50.50 +15 05 09.3 21.8 V G96 – Mt. Lemmon Survey MPS 328545
2010 05 16.21147 10 45 50.54 +15 05 06.5 20.7 V G96 – Mt. Lemmon Survey MPS 328545
2010 05 25.068198 10 48 59.76 +14 24 12.6   C51 – WISE MPS 330709
2010 05 25.332806 10 49 06.588 +14 22 53.08   C51 – WISE MPS 903644
2010 05 25.46511 10 49 09.92 +14 22 14.5   C51 – WISE MPS 330709
2010 05 25.531198 10 49 11.73 +14 21 55.4   C51 – WISE MPS 330709
2010 05 25.531325 10 49 11.64 +14 21 54.6   C51 – WISE MPS 330709
2010 05 25.795806 10 49 18.57 +14 20 33.3   C51 – WISE MPS 330709
2010 05 25.928109 10 49 22.087 +14 19 56.64   C51 – WISE MPS 903644
2010 05 26.060413 10 49 25.74 +14 19 13.5   C51 – WISE MPS 330709
2011 03 14.50097 16 06 34.99 -18 57 51.8 21.0 V G96 – Mt. Lemmon Survey MPS 375317
2011 03 14.50669 16 06 35.17 -18 57 52.5 20.8 V G96 – Mt. Lemmon Survey MPS 375317
2011 03 14.51250 16 06 35.31 -18 57 53.0 20.4 V G96 – Mt. Lemmon Survey MPS 375317
2011 03 14.51830 16 06 35.38 -18 57 53.6 20.0 V G96 – Mt. Lemmon Survey MPS 375317
2011 05 21.30866 15 41 27.67 -19 26 45.7 19.2 V G96 – Mt. Lemmon Survey MPS 383927
2011 05 21.31610 15 41 27.27 -19 26 45.3 19.4 V G96 – Mt. Lemmon Survey MPS 383927
2011 05 21.32362 15 41 26.88 -19 26 45.4 19.3 V G96 – Mt. Lemmon Survey MPS 383927
2011 05 21.33113 15 41 26.48 -19 26 44.4 19.9 V G96 – Mt. Lemmon Survey MPS 383927
2011 05 21.42254 15 41 21.833 -19 26 40.06 19.7 i F51 – Pan-STARRS 1, Haleakala MPS 383927
2011 05 21.43903 15 41 20.961 -19 26 39.36 19.5 i F51 – Pan-STARRS 1, Haleakala MPS 383927
2011 05 21.45731 15 41 19.978 -19 26 38.40 19.6 r F51 – Pan-STARRS 1, Haleakala MPS 383927
2011 05 21.47252 15 41 19.162 -19 26 37.88 19.6 r F51 – Pan-STARRS 1, Haleakala MPS 383927
2011 05 28.24166 15 35 34.33 -19 21 27.6 19.3 R H15 – ISON-NM Observatory, Mayhill MPS 384598
2011 05 28.25528 15 35 33.61 -19 21 27.0 19.7 R H15 – ISON-NM Observatory, Mayhill MPS 384598
2011 05 28.26899 15 35 32.87 -19 21 26.4 19.7 R H15 – ISON-NM Observatory, Mayhill MPS 384598
2011 05 28.28256 15 35 32.14 -19 21 25.8 19.5 R H15 – ISON-NM Observatory, Mayhill MPS 384598
2012 06 26.27076 23 09 32.58 -14 13 00.9 19.8 Y W91 – VHS-VISTA, Cerro Paranal MPS 678214
2012 06 26.28365 23 09 32.89 -14 13 01.4 19.7 Y W91 – VHS-VISTA, Cerro Paranal MPS 678214
2012 08 19.55509 23 00 22.17 -17 16 00.1 19.6 V E12 – Siding Spring Survey MPS 430926
2012 08 19.56491 23 00 21.78 -17 16 03.6 19.6 V E12 – Siding Spring Survey MPS 430926
2012 08 19.57485 23 00 21.27 -17 16 06.1 19.8 V E12 – Siding Spring Survey MPS 430926
2012 08 19.58473 23 00 20.88 -17 16 09.7 20.0 V E12 – Siding Spring Survey MPS 430926
2012 08 25.29249 22 56 10.86 -17 43 28.9 19.1 V 703 – Catalina Sky Survey MPS 430926
2012 08 25.29821 22 56 10.50 -17 43 30.3 19.9 V 703 – Catalina Sky Survey MPS 430926
2012 08 25.30391 22 56 10.32 -17 43 31.2 20.2 V 703 – Catalina Sky Survey MPS 430926
2012 08 25.30959 22 56 09.92 -17 43 31.9 19.8 V 703 – Catalina Sky Survey MPS 430926
2012 11 01.269111 22 28 01.263 -17 43 35.19 20.6 r F51 – Pan-STARRS 1, Haleakala MPS 441359
